[[{"header":{"parameterUnit":"m.s-1","parameterCategory":2,"la1":30.2991,"la2":30.254,"lo1":-89.0895,"lo2":-89.0444,"dy":0.0017,"dx":0.0017,"nx":28,"ny":28,"refTime":"2024-04-02T03:00:00:Z","depth":"0","parameterNumber":2,"parameterNumberName":"U-component_of_CURRENTS"},"data":[0,0,0,0,0,0,0,0,0,0,0,0,0,0,0,0,0,0,0,0,0,0,0,0,0,0,0,0,0,0,0,0,0,0,0,0,0,0,0,0,0,0,0,0,0,0,0,0,0,0,0,0,0,0,0,0,0,0,-0.2599,-0.26,0,-0.2631,-0.2631,-0.2631,-0.2604,-0.2603,-0.2602,-0.2601,-0.2563,-0.2562,-0.2562,0,0,0,0,0,0,0,0,0,0,0,0,0,-0.2517,-0.2518,-0.2599,-0.26,-0.2601,-0.2631,-0.2631,-0.2631,-0.2604,-0.2603,-0.2602,-0.2601,-0.2563,-0.2562,-0.2562,0,0,0,0,0,0,0,0,0,0,0,0,0,-0.2548,-0.2519,-0.2599,-0.2593,-0.2592,-0.2631,-0.2631,-0.2631,-0.2604,-0.2603,-0.2602,-0.26,-0.2563,-0.2562,-0.2562,-0.2587,0,0,-0.2561,-0.2561,0,0,0,0,0,0,0,0,-0.2547,-0.2551,-0.2593,-0.2593,-0.2593,-0.2614,-0.2588,-0.2614,-0.2605,-0.2597,-0.2601,-0.26,-0.2576,-0.2575,-0.2581,-0.2585,-0.2584,-0.2561,-0.2561,-0.2561,-0.2561,0,0,0,0,0,0,0,-0.2544,-0.255,-0.2609,-0.2594,-0.2594,-0.2588,-0.2591,-0.2593,-0.259,-0.2598,-0.2596,-0.2604,-0.2575,-0.2581,-0.258,-0.2583,-0.2561,-0.2561,-0.2561,-0.2561,-0.2585,-0.2586,0,0,0,0,0,0,-0.2548,-0.2548,-0.2608,-0.261,-0.2569,-0.2591,-0.2594,-0.2607,-0.2592,-0.259,-0.2605,-0.2603,-0.2582,-0.258,-0.2578,-0.2594,-0.2561,-0.2561,-0.256,-0.2584,-0.2585,-0.2586,0,0,0,0,0,0,-0.2546,-0.2553,-0.2607,-0.2581,-0.2588,-0.2594,-0.2608,-0.2608,-0.2608,-0.2599,-0.2595,-0.2606,-0.2581,-0.2578,-0.2582,-0.2592,-0.256,-0.256,-0.2583,-0.2584,-0.2585,-0.2632,0,0,0,0,0,0,-0.2543,-0.2552,-0.2558,-0.2582,-0.259,-0.263,-0.261,-0.261,-0.2617,-0.2614,-0.2598,-0.2593,-0.258,-0.2583,-0.2582,-0.2591,-0.256,-0.2582,-0.2584,-0.2585,-0.263,-0.2635,-0.264,0,0,0,0,0,-0.254,-0.2555,-0.2558,-0.2565,-0.2599,-0.2631,-0.2634,-0.2632,-0.2618,-0.2625,-0.2616,-0.2594,-0.2591,-0.2583,-0.2582,-0.2591,-0.2581,-0.2583,-0.2585,-0.2628,-0.2634,-0.264,0,0,0,0,0,0,-0.2517,-0.2555,-0.2558,-0.2582,-0.2605,-0.2627,-0.2633,-0.2635,-0.2635,-0.2627,-0.2609,-0.2605,-0.2612,-0.2599,-0.259,-0.2603,-0.2581,-0.2582,-0.2614,-0.262,-0.2624,-0.2626,-0.256,0,0,0,0,0,-0.2519,-0.2538,-0.2573,-0.2589,-0.2603,-0.2619,-0.2629,-0.2633,-0.264,-0.2639,-0.263,-0.262,-0.2622,-0.2617,-0.2616,-0.2626,-0.2601,-0.263,-0.2634,-0.2639,-0.2639,-0.2627,-0.2631,-0.2592,-0.2592,-0.2592,0,0,-0.2512,-0.2536,-0.2545,-0.2585,-0.26,-0.2631,-0.262,-0.2642,-0.2661,-0.2635,-0.2647,-0.2639,-0.263,-0.2641,-0.2642,-0.2628,-0.2634,-0.2641,-0.2645,-0.2643,-0.263,-0.2633,-0.2637,-0.2593,-0.2593,-0.2593,0,0,-0.2515,-0.2534,-0.2554,-0.2582,-0.2615,-0.2633,-0.2641,-0.2668,-0.2671,-0.2691,-0.2676,-0.2676,-0.2676,-0.2673,-0.2671,-0.2703,-0.2663,-0.27,-0.2723,-0.2711,-0.2714,-0.2717,-0.2676,-0.2674,-0.2699,-0.2699,-0.2699,0,-0.2503,-0.2537,-0.2563,-0.2595,-0.2618,-0.2637,-0.2666,-0.2684,-0.2705,-0.2711,-0.2697,-0.2703,-0.2693,-0.2708,-0.2718,-0.2714,-0.269,-0.2701,-0.2717,-0.2719,-0.2721,-0.2678,-0.2676,-0.2701,-0.2701,-0.2701,-0.2701,0,-0.2527,-0.2556,-0.2572,-0.262,-0.265,-0.2677,-0.2716,-0.2734,-0.2738,-0.275,-0.2762,-0.2754,-0.2752,-0.2753,-0.2745,-0.2757,-0.2729,-0.2727,-0.2701,-0.2727,-0.2681,-0.2677,-0.2705,-0.2704,-0.2703,-0.2703,0,0,-0.2486,-0.2571,-0.2572,-0.2603,-0.2665,-0.2691,-0.2734,-0.2773,-0.279,-0.2802,-0.2813,-0.2822,-0.2808,-0.2805,-0.2794,-0.2787,-0.2774,-0.2763,-0.2762,-0.272,-0.2725,-0.2634,-0.2621,-0.2775,-0.2775,-0.2776,-0.2683,0,-0.2489,-0.255,-0.2595,-0.2649,-0.2684,-0.2728,-0.2767,-0.2805,-0.2823,-0.2839,-0.2836,-0.2841,-0.2832,-0.2824,-0.2821,-0.279,-0.2769,-0.2798,-0.2708,-0.2705,-0.2619,-0.2616,-0.2508,-0.2411,-0.2679,-0.2679,-0.2678,0,-0.2486,-0.2533,-0.2587,-0.2669,-0.2687,-0.2721,-0.2778,-0.2814,-0.2852,-0.2864,-0.2873,-0.2869,-0.2866,-0.2849,-0.2807,-0.2825,-0.2777,-0.2748,-0.2744,-0.264,-0.2608,-0.2432,-0.2394,-0.2383,-0.2672,-0.2673,-0.2673,0,-0.2432,-0.252,-0.256,-0.259,-0.2687,-0.2712,-0.2752,-0.2807,-0.2836,-0.2867,-0.2878,-0.2883,-0.2867,-0.2835,-0.2776,-0.2791,-0.271,-0.2722,-0.259,-0.2582,-0.2462,-0.2443,-0.24,-0.268,-0.2681,-0.2681,-0.2681,0,-0.2414,-0.2442,-0.2537,-0.2559,-0.26,-0.2679,-0.2714,-0.2758,-0.2814,-0.2832,-0.2873,-0.2871,-0.2865,-0.2822,-0.2773,-0.2656,-0.2701,-0.2583,-0.2554,-0.2473,-0.2457,-0.2419,-0.2449,-0.2677,-0.2678,-0.2679,-0.2679,0,-0.234,-0.2408,-0.2452,-0.2548,-0.2574,-0.2593,-0.2681,-0.2708,-0.2775,-0.2797,-0.2806,-0.285,-0.2788,-0.2755,-0.2683,-0.263,-0.2491,-0.2487,-0.2376,-0.2336,-0.2206,-0.2243,-0.2158,-0.2099,-0.233,-0.2328,-0.2325,0,-0.2306,-0.232,-0.2408,-0.2428,-0.2465,-0.2516,-0.255,-0.2654,-0.2684,-0.2765,-0.276,-0.2744,-0.269,-0.2558,-0.2459,-0.2335,-0.2356,-0.2179,-0.2195,-0.2171,-0.2192,-0.2228,-0.2189,-0.2048,-0.2043,-0.204,-0.2037,0,-0.2217,-0.2242,-0.2277,-0.2321,-0.2359,-0.2402,-0.2458,-0.249,-0.2599,-0.262,-0.2618,-0.2588,-0.2487,-0.232,-0.2188,-0.2106,-0.2132,-0.2099,-0.2111,-0.199,-0.1992,-0.1929,-0.2131,-0.2005,-0.2008,-0.201,-0.2012,-0.2013,-0.212,-0.2119,-0.2159,-0.2186,-0.2231,-0.2254,-0.2233,-0.231,-0.2327,-0.232,-0.2396,-0.2291,-0.2221,-0.2013,-0.1943,-0.1798,-0.1871,-0.1745,-0.1794,-0.1836,-0.1773,-0.1887,-0.1713,-0.1714,-0.1716,-0.1717,-0.1718,0,-0.1994,-0.2006,-0.2023,-0.2047,-0.2028,-0.21,-0.2136,-0.2084,-0.204,-0.2073,-0.2024,-0.1919,-0.1783,-0.1743,-0.162,-0.1534,-0.152,-0.1501,-0.1548,-0.1524,-0.1636,-0.1616,-0.137,-0.137,-0.137,-0.137,-0.137,-0.137,-0.1927,-0.1896,-0.1907,-0.1826,-0.1833,-0.1745,-0.1724,-0.1679,-0.1663,-0.155,-0.1497,-0.1474,-0.1497,-0.1617,-0.1522,-0.1441,-0.1434,-0.1365,-0.1416,-0.1529,-0.1558,-0.1585,-0.1573,-0.1321,-0.1321,-0.124,-0.1239,-0.1239]},{"header":{"parameterUnit":"m.s-1","parameterCategory":2,"la1":30.2991,"la2":30.254,"lo1":-89.0895,"lo2":-89.0444,"dy":0.0017,"dx":0.0017,"nx":28,"ny":28,"refTime":"2024-04-02T03:00:00:Z","depth":"0","parameterNumber":3,"parameterNumberName":"V-component_of_CURRENTS"},"data":[0,0,0,0,0,0,0,0,0,0,0,0,0,0,0,0,0,0,0,0,0,0,0,0,0,0,0,0,0,0,0,0,0,0,0,0,0,0,0,0,0,0,0,0,0,0,0,0,0,0,0,0,0,0,0,0,0,0,-0.0166,-0.0166,0,-0.0081,-0.008,-0.0079,-0.0016,-0.0016,-0.0016,-0.0015,0.0112,0.0115,0.0118,0,0,0,0,0,0,0,0,0,0,0,0,0,-0.0217,-0.0217,-0.0166,-0.0166,-0.0165,-0.0082,-0.008,-0.0079,-0.0016,-0.0016,-0.0016,-0.0015,0.0111,0.0115,0.0118,0,0,0,0,0,0,0,0,0,0,0,0,0,-0.0168,-0.0217,-0.0167,-0.0125,-0.0121,-0.0082,-0.008,-0.0079,-0.0017,-0.0016,-0.0015,-0.0015,0.011,0.0114,0.0119,0.0136,0,0,0.0133,0.0135,0,0,0,0,0,0,0,0,-0.0171,-0.0166,-0.0132,-0.0128,-0.0123,-0.0061,-0.0051,-0.0005,-0.0017,-0.0054,-0.0015,-0.0015,0.0057,0.0066,0.0083,0.0142,0.0148,0.0133,0.0136,0.0138,0.0139,0,0,0,0,0,0,0,-0.0175,-0.0169,-0.0131,-0.0131,-0.0126,-0.0091,-0.0084,-0.0042,-0.0,-0.0051,-0.0046,-0.004,0.006,0.0078,0.0086,0.015,0.0133,0.0137,0.014,0.0142,0.0251,0.0251,0,0,0,0,0,0,-0.0193,-0.0173,-0.0133,-0.0128,-0.0148,-0.0091,-0.0083,-0.008,-0.0002,0.001,-0.0041,-0.0038,0.007,0.0081,0.0091,0.012,0.0138,0.0142,0.0145,0.025,0.0251,0.0251,0,0,0,0,0,0,-0.0194,-0.019,-0.0137,-0.015,-0.0141,-0.0091,-0.0088,-0.0078,-0.0061,0.0005,0.0018,-0.0034,0.0071,0.0084,0.0126,0.0125,0.0144,0.0149,0.025,0.0251,0.0251,0.0175,0,0,0,0,0,0,-0.0196,-0.0192,-0.0198,-0.0152,-0.0141,-0.0124,-0.0088,-0.0077,-0.0059,-0.0054,0.0015,0.0027,0.0072,0.0119,0.013,0.0132,0.0152,0.025,0.025,0.0251,0.0178,0.0173,0.0169,0,0,0,0,0,-0.0198,-0.0213,-0.0199,-0.0194,-0.0151,-0.0124,-0.0116,-0.0077,-0.006,-0.0058,-0.0008,0.0025,0.0129,0.0122,0.0136,0.0139,0.025,0.025,0.0251,0.018,0.0174,0.0169,0,0,0,0,0,0,-0.0238,-0.0207,-0.0191,-0.0195,-0.0166,-0.0115,-0.0112,-0.0085,-0.0044,-0.0039,0.0026,0.0041,0.0077,0.0118,0.0109,0.0172,0.0196,0.0199,0.0137,0.0132,0.0128,0.0116,0.0156,0,0,0,0,0,-0.0252,-0.0255,-0.0215,-0.022,-0.0209,-0.0162,-0.0147,-0.0121,-0.0079,-0.0061,-0.0012,0.0043,0.009,0.0117,0.0162,0.0195,0.0245,0.0207,0.0203,0.0199,0.02,0.0272,0.0274,0.0252,0.0252,0.0252,0,0,-0.0271,-0.0253,-0.0256,-0.0229,-0.0203,-0.0196,-0.0152,-0.0137,-0.0125,-0.0054,-0.0024,0.0025,0.0094,0.013,0.0151,0.0165,0.0231,0.0199,0.0195,0.0199,0.0272,0.0274,0.0276,0.0252,0.0252,0.0252,0,0,-0.0312,-0.0293,-0.0309,-0.0289,-0.026,-0.0228,-0.0228,-0.0181,-0.0153,-0.0121,-0.0065,-0.0016,0.005,0.0104,0.0139,0.0139,0.0201,0.0152,0.0126,0.0195,0.0198,0.02,0.026,0.0269,0.0154,0.0154,0.0154,0,-0.0336,-0.0348,-0.031,-0.0316,-0.0306,-0.0248,-0.0258,-0.0221,-0.0165,-0.0139,-0.0124,-0.0011,0.004,0.0103,0.0102,0.0129,0.0175,0.0136,0.0189,0.0193,0.0197,0.0257,0.0268,0.0151,0.0151,0.0151,0.0152,0,-0.0385,-0.0393,-0.04,-0.0388,-0.0369,-0.0371,-0.0317,-0.0291,-0.0252,-0.0205,-0.0142,-0.0067,0.0003,0.0027,0.0064,0.012,0.0146,0.0169,0.0197,0.0194,0.0259,0.0271,0.0145,0.0147,0.0148,0.0149,0,0,-0.0445,-0.044,-0.0443,-0.0451,-0.0409,-0.0402,-0.0375,-0.033,-0.0305,-0.0241,-0.0199,-0.0116,-0.0067,-0.0023,0.0038,0.01,0.0163,0.0139,0.0145,0.019,0.0313,0.0355,0.0373,0.0195,0.0197,0.0198,0.0344,0,-0.0497,-0.0538,-0.0509,-0.0535,-0.0548,-0.0483,-0.0459,-0.0404,-0.0344,-0.0286,-0.019,-0.0131,-0.0086,-0.0052,0.0016,0.0132,0.0193,0.0121,0.0318,0.0324,0.0354,0.0388,0.0431,0.0567,0.0356,0.0358,0.036,0,-0.0555,-0.0574,-0.0617,-0.0607,-0.0604,-0.06,-0.0546,-0.0517,-0.0411,-0.0361,-0.0277,-0.0195,-0.0088,-0.0057,0.0135,0.0087,0.0187,0.0275,0.0283,0.0359,0.0389,0.054,0.0598,0.0752,0.0379,0.0378,0.0376,0,-0.0624,-0.0647,-0.0687,-0.0686,-0.0661,-0.0655,-0.063,-0.0541,-0.0508,-0.0404,-0.0364,-0.0225,-0.0145,-0.0006,0.0174,0.0158,0.039,0.0392,0.0525,0.0529,0.0625,0.0634,0.085,0.0521,0.0521,0.052,0.052,0,-0.0692,-0.0722,-0.0726,-0.0746,-0.0778,-0.0725,-0.072,-0.067,-0.0581,-0.053,-0.0412,-0.033,-0.0127,0.0034,0.0176,0.0399,0.0396,0.0534,0.0577,0.0599,0.0603,0.0788,0.0834,0.0526,0.0525,0.0524,0.0523,0,-0.076,-0.0765,-0.0812,-0.0812,-0.0814,-0.0834,-0.0796,-0.078,-0.069,-0.0618,-0.0586,-0.039,-0.017,0.0035,0.0294,0.0412,0.0713,0.0684,0.0691,0.0732,0.0976,0.1014,0.1247,0.1348,0.085,0.0852,0.0854,0,-0.0801,-0.0832,-0.0874,-0.0908,-0.0913,-0.0928,-0.0928,-0.085,-0.0815,-0.0642,-0.0605,-0.0377,-0.0183,0.0203,0.0464,0.0737,0.0831,0.0909,0.0883,0.1015,0.109,0.1097,0.1164,0.0982,0.0984,0.0986,0.0988,0,-0.0866,-0.088,-0.0921,-0.0997,-0.1026,-0.105,-0.1034,-0.1016,-0.0893,-0.0792,-0.0591,-0.0414,-0.0019,0.0349,0.0686,0.0834,0.1023,0.0959,0.1114,0.123,0.1237,0.1346,0.0847,0.1007,0.1005,0.1004,0.1003,0.1002,-0.0907,-0.0962,-0.1017,-0.1084,-0.1124,-0.1144,-0.1137,-0.1065,-0.0974,-0.0748,-0.0589,-0.0236,0.0246,0.0754,0.0927,0.1282,0.1213,0.1366,0.1407,0.1406,0.1492,0.1025,0.1215,0.1215,0.1214,0.1214,0.1213,0,-0.096,-0.1019,-0.1095,-0.1168,-0.1217,-0.1213,-0.1184,-0.1113,-0.0968,-0.0679,-0.0431,0.019,0.0653,0.1078,0.1552,0.1726,0.1757,0.1795,0.1832,0.1886,0.1508,0.1503,0.1744,0.1744,0.1744,0.1744,0.1743,0.1743,-0.0988,-0.108,-0.1125,-0.1225,-0.1266,-0.1278,-0.1248,-0.1079,-0.085,-0.0354,0.0078,0.0411,0.0974,0.1673,0.2109,0.2134,0.2291,0.2245,0.234,0.2088,0.205,0.2015,0.2025,0.2372,0.2373,0.2714,0.2717,0.272]}],[{"header":{"parameterUnit":"m.s-1","parameterCategory":2,"la1":30.2991,"la2":30.254,"lo1":-89.0895,"lo2":-89.0444,"dy":0.0017,"dx":0.0017,"nx":28,"ny":28,"refTime":"2024-04-02T03:00:00:Z","depth":"2","parameterNumber":2,"parameterNumberName":"U-component_of_CURRENTS"},"data":[0,0,0,0,0,0,0,0,0,0,0,0,0,0,0,0,0,0,0,0,0,0,0,0,0,0,0,0,0,0,0,0,0,0,0,0,0,0,0,0,0,0,0,0,0,0,0,0,0,0,0,0,0,0,0,0,0,0,-0.2447,-0.2447,0,-0.2481,-0.2481,-0.2481,-0.2462,-0.2461,-0.246,-0.246,-0.2431,-0.2431,-0.2431,0,0,0,0,0,0,0,0,0,0,0,0,0,-0.2366,-0.2367,-0.2447,-0.2447,-0.2448,-0.2481,-0.2481,-0.2481,-0.2462,-0.2461,-0.246,-0.2459,-0.2431,-0.2431,-0.2431,0,0,0,0,0,0,0,0,0,0,0,0,0,-0.2398,-0.2368,-0.2447,-0.2444,-0.2444,-0.2481,-0.2481,-0.2481,-0.2462,-0.2461,-0.246,-0.2459,-0.2431,-0.2431,-0.2431,-0.2452,0,0,-0.2431,-0.2431,0,0,0,0,0,0,0,0,-0.2396,-0.2401,-0.2444,-0.2444,-0.2445,-0.2468,-0.2442,-0.2469,-0.2462,-0.2453,-0.246,-0.2458,-0.244,-0.2439,-0.2446,-0.2451,-0.245,-0.2431,-0.2431,-0.2431,-0.2431,0,0,0,0,0,0,0,-0.2394,-0.2399,-0.2458,-0.2445,-0.2445,-0.2442,-0.2445,-0.2447,-0.2449,-0.2454,-0.2453,-0.2461,-0.244,-0.2446,-0.2445,-0.2449,-0.2431,-0.2431,-0.2431,-0.2431,-0.246,-0.2461,0,0,0,0,0,0,-0.2397,-0.2398,-0.2457,-0.2459,-0.242,-0.2444,-0.2448,-0.246,-0.245,-0.2449,-0.2462,-0.246,-0.2447,-0.2445,-0.2443,-0.2465,-0.2431,-0.2431,-0.243,-0.2459,-0.2461,-0.2461,0,0,0,0,0,0,-0.2395,-0.2402,-0.2455,-0.243,-0.2437,-0.2447,-0.2461,-0.2461,-0.2465,-0.2458,-0.2455,-0.2466,-0.2446,-0.2444,-0.2451,-0.2464,-0.243,-0.243,-0.2458,-0.246,-0.2461,-0.251,0,0,0,0,0,0,-0.2392,-0.2401,-0.2408,-0.2431,-0.2439,-0.248,-0.2462,-0.2463,-0.2473,-0.2471,-0.246,-0.2457,-0.2445,-0.2452,-0.2451,-0.2463,-0.243,-0.2457,-0.2459,-0.2461,-0.2507,-0.2513,-0.2518,0,0,0,0,0,-0.2389,-0.2404,-0.2408,-0.2415,-0.2449,-0.2481,-0.2484,-0.2485,-0.2475,-0.2483,-0.2478,-0.2457,-0.2461,-0.2453,-0.2452,-0.2464,-0.2457,-0.2459,-0.246,-0.2505,-0.2512,-0.2517,0,0,0,0,0,0,-0.237,-0.2405,-0.2409,-0.2433,-0.2457,-0.2478,-0.2487,-0.249,-0.2494,-0.2488,-0.2473,-0.247,-0.2481,-0.2469,-0.246,-0.2477,-0.2454,-0.2456,-0.2488,-0.2494,-0.2499,-0.2501,-0.243,0,0,0,0,0,-0.2372,-0.2391,-0.2424,-0.2441,-0.2455,-0.2472,-0.2483,-0.2489,-0.2499,-0.2499,-0.2494,-0.2488,-0.2491,-0.2489,-0.2489,-0.2502,-0.2478,-0.2507,-0.2512,-0.2517,-0.2518,-0.2507,-0.2511,-0.2468,-0.2468,-0.2468,0,0,-0.2367,-0.239,-0.2399,-0.2438,-0.2454,-0.2484,-0.2475,-0.2499,-0.252,-0.2496,-0.2514,-0.2508,-0.25,-0.2514,-0.2517,-0.2503,-0.2514,-0.2519,-0.2523,-0.2522,-0.2509,-0.2513,-0.2517,-0.2469,-0.2469,-0.2469,0,0,-0.2372,-0.2391,-0.241,-0.2438,-0.2473,-0.249,-0.2499,-0.2527,-0.2533,-0.2557,-0.2544,-0.2547,-0.2551,-0.255,-0.2548,-0.2583,-0.2544,-0.258,-0.2605,-0.2595,-0.2598,-0.26,-0.2563,-0.2562,-0.258,-0.258,-0.258,0,-0.2363,-0.2396,-0.242,-0.2452,-0.2476,-0.2495,-0.2525,-0.2544,-0.2569,-0.2576,-0.2565,-0.2577,-0.2569,-0.2586,-0.2598,-0.2594,-0.2572,-0.2582,-0.2601,-0.2603,-0.2605,-0.2565,-0.2564,-0.2582,-0.2582,-0.2582,-0.2582,0,-0.2387,-0.2416,-0.2432,-0.248,-0.251,-0.2538,-0.2576,-0.2597,-0.2605,-0.2618,-0.2636,-0.263,-0.2631,-0.2634,-0.2627,-0.2641,-0.2614,-0.2611,-0.2584,-0.2612,-0.2569,-0.2566,-0.2586,-0.2585,-0.2584,-0.2584,0,0,-0.2351,-0.2433,-0.2435,-0.2464,-0.2527,-0.2552,-0.2597,-0.2637,-0.2655,-0.2672,-0.2687,-0.27,-0.2689,-0.2687,-0.2678,-0.2673,-0.2664,-0.265,-0.2648,-0.261,-0.262,-0.253,-0.2517,-0.2664,-0.2665,-0.2665,-0.2579,0,-0.2357,-0.2417,-0.2459,-0.2512,-0.2547,-0.2591,-0.2631,-0.2669,-0.269,-0.2709,-0.271,-0.272,-0.2713,-0.2709,-0.2707,-0.2678,-0.2661,-0.2685,-0.26,-0.2597,-0.2513,-0.2513,-0.2336,-0.224,-0.2576,-0.2576,-0.2575,0,-0.2356,-0.2401,-0.2455,-0.2533,-0.2551,-0.2586,-0.2644,-0.2681,-0.2721,-0.2735,-0.2749,-0.2749,-0.2751,-0.2735,-0.2698,-0.2714,-0.267,-0.2643,-0.2639,-0.2536,-0.2502,-0.2269,-0.2221,-0.257,-0.2571,-0.2571,-0.2571,0,-0.2307,-0.2391,-0.2432,-0.246,-0.2554,-0.258,-0.2621,-0.2677,-0.2705,-0.2741,-0.2755,-0.2764,-0.2753,-0.2724,-0.2671,-0.2685,-0.2612,-0.262,-0.2494,-0.2486,-0.2308,-0.2284,-0.2584,-0.2584,-0.2584,-0.2584,-0.2584,0,-0.2291,-0.232,-0.2411,-0.2434,-0.2474,-0.2551,-0.2588,-0.2631,-0.2689,-0.2707,-0.2752,-0.2752,-0.2752,-0.2714,-0.2669,-0.2559,-0.2604,-0.2488,-0.246,-0.2318,-0.2297,-0.2568,-0.2567,-0.2581,-0.2582,-0.2582,-0.2583,0,-0.2222,-0.2289,-0.2332,-0.2425,-0.245,-0.2471,-0.2557,-0.2584,-0.2652,-0.2675,-0.2686,-0.2732,-0.2677,-0.2651,-0.2585,-0.2534,-0.2453,-0.24,-0.222,-0.2172,-0.2335,-0.2338,-0.2256,-0.2252,-0.2248,-0.2246,-0.2243,0,-0.2191,-0.2205,-0.2292,-0.2311,-0.2348,-0.2399,-0.2432,-0.2534,-0.2563,-0.2644,-0.2639,-0.263,-0.2578,-0.2457,-0.2357,-0.224,-0.2333,-0.2027,-0.2029,-0.2321,-0.2302,-0.231,-0.2318,-0.1804,-0.1798,-0.1793,-0.179,0,-0.2108,-0.2134,-0.2168,-0.221,-0.2247,-0.2287,-0.2343,-0.2371,-0.2478,-0.2499,-0.2498,-0.247,-0.2371,-0.2172,-0.2047,-0.1963,-0.2039,-0.1928,-0.2265,-0.1925,-0.1891,-0.1875,-0.1897,-0.1748,-0.1752,-0.1755,-0.1757,-0.1759,-0.2019,-0.2017,-0.2057,-0.2081,-0.2125,-0.2144,-0.2122,-0.2193,-0.2207,-0.2189,-0.2268,-0.2139,-0.2115,-0.1807,-0.1702,-0.1612,-0.175,-0.1678,-0.1694,-0.1715,-0.1689,-0.1652,-0.1457,-0.146,-0.1462,-0.1463,-0.1465,0,-0.1899,-0.1911,-0.1926,-0.1948,-0.1928,-0.1998,-0.2028,-0.1967,-0.1918,-0.1924,-0.1869,-0.1628,-0.1504,-0.1477,-0.1276,-0.1246,-0.125,-0.1197,-0.1211,-0.1251,-0.1287,-0.1243,-0.0891,-0.089,-0.0888,-0.0887,0,0,-0.1836,-0.1804,-0.1812,-0.1732,-0.174,-0.165,-0.1627,-0.1561,-0.1519,-0.1379,-0.1294,-0.1373,-0.1411,-0.1145,-0.1093,-0.096,-0.1094,-0.0905,-0.136,-0.1414,-0.1449,-0.1552,-0.1526,0,0,0,0,0]},{"header":{"parameterUnit":"m.s-1","parameterCategory":2,"la1":30.2991,"la2":30.254,"lo1":-89.0895,"lo2":-89.0444,"dy":0.0017,"dx":0.0017,"nx":28,"ny":28,"refTime":"2024-04-02T03:00:00:Z","depth":"2","parameterNumber":3,"parameterNumberName":"V-component_of_CURRENTS"},"data":[0,0,0,0,0,0,0,0,0,0,0,0,0,0,0,0,0,0,0,0,0,0,0,0,0,0,0,0,0,0,0,0,0,0,0,0,0,0,0,0,0,0,0,0,0,0,0,0,0,0,0,0,0,0,0,0,0,0,-0.0273,-0.0272,0,-0.0191,-0.019,-0.0189,-0.0129,-0.0129,-0.0128,-0.0128,-0.0005,-0.0002,0.0001,0,0,0,0,0,0,0,0,0,0,0,0,0,-0.0323,-0.0322,-0.0273,-0.0272,-0.0271,-0.0191,-0.019,-0.0188,-0.0129,-0.0129,-0.0128,-0.0128,-0.0006,-0.0002,0.0001,0,0,0,0,0,0,0,0,0,0,0,0,0,-0.0275,-0.0322,-0.0273,-0.0233,-0.0229,-0.0191,-0.019,-0.0188,-0.0129,-0.0129,-0.0128,-0.0128,-0.0007,-0.0003,0.0002,0.0019,0,0,0.0015,0.0017,0,0,0,0,0,0,0,0,-0.0278,-0.0273,-0.024,-0.0236,-0.0231,-0.0171,-0.0162,-0.0117,-0.0129,-0.0165,-0.0128,-0.0127,-0.0058,-0.0049,-0.0033,0.0025,0.003,0.0016,0.0019,0.002,0.0022,0,0,0,0,0,0,0,-0.0282,-0.0276,-0.0238,-0.0239,-0.0234,-0.0201,-0.0194,-0.0153,-0.0113,-0.0162,-0.0158,-0.0152,-0.0055,-0.0038,-0.003,0.0032,0.0016,0.002,0.0022,0.0024,0.0134,0.0134,0,0,0,0,0,0,-0.0299,-0.028,-0.0241,-0.0236,-0.0256,-0.0201,-0.0193,-0.0189,-0.0114,-0.0103,-0.0152,-0.0149,-0.0046,-0.0035,-0.0025,0.0007,0.002,0.0025,0.0027,0.0134,0.0134,0.0134,0,0,0,0,0,0,-0.03,-0.0296,-0.0244,-0.0257,-0.0249,-0.0201,-0.0197,-0.0188,-0.0171,-0.0108,-0.0096,-0.0145,-0.0045,-0.0031,0.001,0.0012,0.0027,0.0031,0.0134,0.0134,0.0134,0.0066,0,0,0,0,0,0,-0.0302,-0.0297,-0.0303,-0.0259,-0.0249,-0.023,-0.0198,-0.0187,-0.0169,-0.0164,-0.0098,-0.0085,-0.0043,0.0003,0.0015,0.0018,0.0034,0.0133,0.0134,0.0134,0.0068,0.0064,0.0061,0,0,0,0,0,-0.0304,-0.0317,-0.0304,-0.0299,-0.0257,-0.0231,-0.0223,-0.0185,-0.0169,-0.0166,-0.0118,-0.0088,0.0015,0.0007,0.002,0.0025,0.0133,0.0134,0.0134,0.0069,0.0065,0.0061,0,0,0,0,0,0,-0.0341,-0.0311,-0.0296,-0.0298,-0.027,-0.0222,-0.0218,-0.0192,-0.0152,-0.0147,-0.0086,-0.007,-0.0034,0.0005,-0.0005,0.0059,0.008,0.0083,0.0026,0.0022,0.0019,0.0006,0.0038,0,0,0,0,0,-0.0354,-0.0356,-0.0317,-0.0321,-0.031,-0.0265,-0.0251,-0.0226,-0.0185,-0.0167,-0.0119,-0.0067,-0.0021,0.0007,0.005,0.0084,0.0129,0.0097,0.0094,0.009,0.009,0.0158,0.016,0.0136,0.0136,0.0136,0,0,-0.0371,-0.0354,-0.0356,-0.0329,-0.0304,-0.0296,-0.0255,-0.0239,-0.0226,-0.016,-0.0129,-0.0081,-0.0016,0.0022,0.0043,0.0055,0.012,0.0091,0.0087,0.0089,0.0158,0.0161,0.0163,0.0137,0.0137,0.0137,0,0,-0.0407,-0.0389,-0.0403,-0.0384,-0.0354,-0.0324,-0.0323,-0.0277,-0.0251,-0.0218,-0.0165,-0.0116,-0.0051,0.0001,0.0035,0.0038,0.0094,0.0052,0.0028,0.0093,0.0096,0.0098,0.0152,0.016,0.0054,0.0054,0.0054,0,-0.0429,-0.0439,-0.0403,-0.0407,-0.0397,-0.0342,-0.035,-0.0314,-0.0259,-0.0235,-0.0219,-0.0109,-0.0059,0.0002,0.0004,0.003,0.0072,0.0036,0.0087,0.0091,0.0095,0.015,0.0159,0.0051,0.0051,0.0052,0.0052,0,-0.0472,-0.0478,-0.0484,-0.0471,-0.0452,-0.0452,-0.04,-0.0375,-0.0337,-0.0294,-0.0232,-0.0158,-0.0091,-0.0066,-0.003,0.0025,0.0047,0.0069,0.0094,0.0093,0.0151,0.0162,0.0046,0.0047,0.0048,0.0049,0,0,-0.0527,-0.0519,-0.0522,-0.0529,-0.0488,-0.0481,-0.0453,-0.0411,-0.0388,-0.0324,-0.0285,-0.0202,-0.0155,-0.0113,-0.0053,0.0006,0.0066,0.0043,0.0048,0.0087,0.0205,0.024,0.0257,0.0097,0.0098,0.01,0.0231,0,-0.0574,-0.0609,-0.0581,-0.0604,-0.0616,-0.0554,-0.0531,-0.0479,-0.0423,-0.0369,-0.0275,-0.0219,-0.0173,-0.0139,-0.0073,0.0035,0.0094,0.0028,0.0208,0.0213,0.0238,0.027,0.0219,0.0334,0.0242,0.0244,0.0246,0,-0.0625,-0.0642,-0.0681,-0.0672,-0.0669,-0.0664,-0.0616,-0.0588,-0.0488,-0.0442,-0.0361,-0.0282,-0.0179,-0.0146,0.0036,-0.0009,0.0087,0.0169,0.0177,0.0243,0.0271,0.0323,0.0358,0.0265,0.0264,0.0262,0.0261,0,-0.0691,-0.071,-0.0748,-0.0746,-0.0722,-0.0717,-0.0693,-0.0611,-0.0582,-0.0483,-0.0447,-0.0313,-0.0237,-0.0103,0.0068,0.0054,0.027,0.0274,0.0397,0.04,0.041,0.0411,0.0397,0.0397,0.0397,0.0396,0.0396,0,-0.0753,-0.0781,-0.0785,-0.0804,-0.0835,-0.0785,-0.0783,-0.0735,-0.0653,-0.0609,-0.0493,-0.0418,-0.0222,-0.0072,0.0066,0.0276,0.0273,0.0405,0.0445,0.0385,0.0382,0.0364,0.0358,0.0401,0.04,0.0399,0.0398,0,-0.0818,-0.0822,-0.0866,-0.0866,-0.087,-0.089,-0.0857,-0.0845,-0.076,-0.0697,-0.0666,-0.0481,-0.0275,-0.0078,0.0166,0.0281,0.0468,0.0538,0.0451,0.0478,0.055,0.054,0.0686,0.0688,0.069,0.0692,0.0693,0,-0.0856,-0.0885,-0.0926,-0.096,-0.0965,-0.0981,-0.0983,-0.0911,-0.0883,-0.0724,-0.0692,-0.0479,-0.03,0.0064,0.0303,0.056,0.0547,0.0644,0.0612,0.056,0.0584,0.057,0.0557,0.0595,0.0595,0.0596,0.0596,0,-0.0919,-0.0933,-0.0972,-0.1046,-0.1076,-0.1102,-0.109,-0.1077,-0.0965,-0.0874,-0.0691,-0.0528,-0.0168,0.013,0.0446,0.0575,0.0597,0.0663,0.0655,0.0526,0.0485,0.0504,0.0493,0.06,0.06,0.0599,0.0599,0.0599,-0.096,-0.1012,-0.1065,-0.1132,-0.1173,-0.1197,-0.1194,-0.1132,-0.1054,-0.0859,-0.0704,-0.0413,-0.0149,0.0332,0.0531,0.0701,0.0702,0.0722,0.0716,0.0711,0.0674,0.0638,0.0775,0.0776,0.0776,0.0777,0.0777,0,-0.1012,-0.1068,-0.1143,-0.1216,-0.1266,-0.1263,-0.1244,-0.1188,-0.1063,-0.0838,-0.0613,-0.0292,0.0048,0.0317,0.0606,0.0773,0.0732,0.0771,0.0682,0.0676,0.0672,0.0629,0.0721,0.0721,0.0722,0.0722,0,0,-0.104,-0.1128,-0.1172,-0.1274,-0.1316,-0.1336,-0.1312,-0.1181,-0.1009,-0.0767,-0.0524,-0.0222,0.0096,0.0286,0.0474,0.0614,0.0595,0.061,0.0633,0.0497,0.0491,0.062,0.0545,0,0,0,0,0]}],[{"header":{"parameterUnit":"m.s-1","parameterCategory":2,"la1":30.2991,"la2":30.254,"lo1":-89.0895,"lo2":-89.0444,"dy":0.0017,"dx":0.0017,"nx":28,"ny":28,"refTime":"2024-04-02T03:00:00:Z","depth":"4","parameterNumber":2,"parameterNumberName":"U-component_of_CURRENTS"},"data":[0,0,0,0,0,0,0,0,0,0,0,0,0,0,0,0,0,0,0,0,0,0,0,0,0,0,0,0,0,0,0,0,0,0,0,0,0,0,0,0,0,0,0,0,0,0,0,0,0,0,0,0,0,0,0,0,0,0,-0.1701,-0.1702,0,-0.1774,-0.1774,-0.1775,-0.1815,-0.1815,-0.1815,-0.1815,-0.1868,-0.1869,-0.187,0,0,0,0,0,0,0,0,0,0,0,0,0,-0.1597,-0.1598,-0.17,-0.1702,-0.1703,-0.1773,-0.1774,-0.1775,-0.1815,-0.1815,-0.1815,-0.1815,-0.1868,-0.1869,-0.187,0,0,0,0,0,0,0,0,0,0,0,0,0,-0.1651,-0.1599,-0.17,-0.1732,-0.1736,-0.1773,-0.1774,-0.1775,-0.1814,-0.1815,-0.1815,-0.1816,-0.1867,-0.1869,-0.1871,-0.1873,0,0,-0.1876,-0.1877,0,0,0,0,0,0,0,0,-0.1648,-0.1655,-0.1726,-0.173,-0.1734,-0.1787,-0.1757,-0.1808,-0.1814,-0.1783,-0.1815,-0.1816,-0.184,-0.1844,-0.1854,-0.1876,-0.1878,-0.1876,-0.1877,-0.1878,-0.1878,0,0,0,0,0,0,0,-0.1644,-0.1652,-0.1728,-0.1728,-0.1733,-0.1744,-0.1752,-0.1767,-0.1806,-0.1785,-0.1789,-0.18,-0.1842,-0.1853,-0.1856,-0.1879,-0.1876,-0.1877,-0.1879,-0.1879,-0.1973,-0.1975,0,0,0,0,0,0,-0.1639,-0.1648,-0.1725,-0.173,-0.1693,-0.1745,-0.1754,-0.1768,-0.1807,-0.1814,-0.18,-0.1802,-0.1849,-0.1854,-0.1858,-0.1933,-0.1878,-0.1879,-0.188,-0.1972,-0.1974,-0.1975,0,0,0,0,0,0,-0.1636,-0.1645,-0.1722,-0.1692,-0.1703,-0.1747,-0.1762,-0.1769,-0.1809,-0.1818,-0.1824,-0.1835,-0.185,-0.1855,-0.1903,-0.1933,-0.188,-0.1882,-0.197,-0.1973,-0.1975,-0.2038,0,0,0,0,0,0,-0.1633,-0.1644,-0.1666,-0.1692,-0.1704,-0.1765,-0.1762,-0.1771,-0.1814,-0.1819,-0.185,-0.1854,-0.1851,-0.19,-0.1904,-0.1934,-0.1883,-0.1968,-0.1971,-0.1974,-0.2035,-0.2043,-0.2049,0,0,0,0,0,-0.1629,-0.1654,-0.1667,-0.1677,-0.1729,-0.1766,-0.1774,-0.1804,-0.1816,-0.184,-0.1866,-0.1854,-0.192,-0.1903,-0.1908,-0.1938,-0.1967,-0.197,-0.1974,-0.2031,-0.2041,-0.2049,0,0,0,0,0,0,-0.1622,-0.1661,-0.1676,-0.1713,-0.1747,-0.1774,-0.1805,-0.1822,-0.1862,-0.1875,-0.1878,-0.1884,-0.1935,-0.1929,-0.1911,-0.1973,-0.194,-0.1944,-0.1982,-0.1991,-0.1999,-0.1994,-0.1884,0,0,0,0,0,-0.163,-0.1661,-0.1695,-0.1729,-0.1749,-0.1782,-0.1807,-0.1829,-0.186,-0.188,-0.1903,-0.1925,-0.1947,-0.1965,-0.1982,-0.202,-0.1994,-0.2041,-0.2049,-0.2055,-0.2055,-0.205,-0.2057,-0.1986,-0.1986,-0.1986,0,0,-0.1637,-0.1663,-0.1682,-0.173,-0.176,-0.1798,-0.1799,-0.1847,-0.1884,-0.1878,-0.1944,-0.1957,-0.1964,-0.2007,-0.2028,-0.2011,-0.2061,-0.2059,-0.2065,-0.2061,-0.2054,-0.2061,-0.2067,-0.1988,-0.1988,-0.1988,0,0,-0.1655,-0.1691,-0.1721,-0.1755,-0.1808,-0.183,-0.185,-0.1897,-0.1928,-0.1984,-0.1989,-0.2022,-0.2062,-0.2071,-0.2078,-0.2137,-0.2101,-0.2146,-0.2182,-0.2179,-0.2184,-0.2188,-0.2155,-0.2156,-0.2149,-0.2149,-0.2149,0,-0.1664,-0.1705,-0.1736,-0.1775,-0.1809,-0.1847,-0.1888,-0.1925,-0.1984,-0.2008,-0.2016,-0.2078,-0.2089,-0.2126,-0.215,-0.2154,-0.2135,-0.2147,-0.2187,-0.2191,-0.2194,-0.2159,-0.216,-0.2153,-0.2152,-0.2152,-0.2152,0,-0.1695,-0.1743,-0.1766,-0.1826,-0.1867,-0.1911,-0.1961,-0.201,-0.205,-0.2077,-0.2137,-0.2155,-0.2184,-0.2198,-0.2196,-0.2231,-0.2204,-0.2197,-0.2161,-0.2205,-0.2166,-0.2165,-0.2158,-0.2157,-0.2155,-0.2155,0,0,-0.1671,-0.1769,-0.1779,-0.1819,-0.19,-0.1932,-0.2004,-0.2064,-0.2104,-0.2162,-0.2203,-0.2252,-0.2258,-0.2266,-0.2269,-0.2273,-0.2283,-0.2253,-0.2251,-0.2214,-0.2257,-0.2105,-0.2088,-0.2286,-0.2287,-0.2287,-0.2215,0,-0.1687,-0.1761,-0.181,-0.1888,-0.193,-0.1993,-0.2051,-0.2113,-0.2162,-0.2212,-0.2239,-0.228,-0.2285,-0.2301,-0.2311,-0.2292,-0.2286,-0.2302,-0.2224,-0.2221,-0.2076,-0.2084,-0.2289,-0.2214,-0.2214,-0.2214,-0.2214,0,-0.1689,-0.1744,-0.1822,-0.1919,-0.1944,-0.1999,-0.2089,-0.2145,-0.2217,-0.2252,-0.2297,-0.2316,-0.2345,-0.2337,-0.2325,-0.2337,-0.2304,-0.2283,-0.2279,-0.2112,-0.2067,-0.2164,-0.2211,-0.2211,-0.2211,-0.2212,-0.2212,0,-0.1637,-0.1746,-0.1809,-0.1845,-0.1961,-0.2011,-0.2073,-0.2158,-0.22,-0.2275,-0.2301,-0.2341,-0.2353,-0.2341,-0.2307,-0.2321,-0.2267,-0.2273,-0.2101,-0.2089,-0.2221,-0.2217,-0.2253,-0.2253,-0.2254,-0.2254,-0.2254,0,-0.1614,-0.1668,-0.1796,-0.183,-0.19,-0.1993,-0.2064,-0.2128,-0.2209,-0.2236,-0.2314,-0.2318,-0.2358,-0.2335,-0.2304,-0.2182,-0.2261,-0.2094,-0.2059,-0.2248,-0.2248,-0.2219,-0.2216,-0.2251,-0.2252,-0.2252,-0.2253,0,-0.1536,-0.1628,-0.1702,-0.1836,-0.1878,-0.1925,-0.2048,-0.2085,-0.2181,-0.2215,-0.2238,-0.23,-0.2258,-0.2262,-0.2219,-0.2148,-0.2068,-0.2005,-0.2184,-0.2163,-0.1894,-0.1895,-0.1801,-0.1795,-0.179,-0.1786,-0.1783,0,-0.1499,-0.1533,-0.1678,-0.1718,-0.1783,-0.1872,-0.1922,-0.2047,-0.2078,-0.2171,-0.216,-0.2174,-0.2187,-0.1994,-0.2026,-0.1933,-0.1915,-0.1865,-0.1902,-0.1871,-0.1848,-0.1857,-0.1865,-0.1774,-0.1773,-0.1772,-0.177,0,-0.1414,-0.1479,-0.1537,-0.162,-0.169,-0.1749,-0.1832,-0.1843,-0.196,-0.2071,-0.2016,-0.1979,-0.1921,-0.1874,-0.1808,-0.1754,-0.1897,-0.1812,-0.1823,-0.1857,-0.1837,-0.1821,-0.1835,-0.1753,-0.1755,-0.1757,-0.1758,0,-0.134,-0.1356,-0.1437,-0.1489,-0.1573,-0.159,-0.1659,-0.1686,-0.1731,-0.1851,-0.1818,-0.1832,-0.1891,-0.1777,-0.1719,-0.1648,-0.163,-0.1587,-0.161,-0.163,-0.1607,-0.1558,-0.1343,0,0,0,0,0,-0.1256,-0.1257,-0.1297,-0.1349,-0.1423,-0.146,-0.1575,-0.1647,-0.177,-0.168,-0.1747,-0.1683,-0.1598,-0.161,-0.1495,-0.1635,-0.1635,-0.1496,-0.16,-0.1655,-0.1676,-0.1665,0,0,0,0,0,0,-0.1202,-0.1236,-0.1246,-0.1208,-0.121,-0.1267,-0.1331,-0.142,-0.1387,-0.1515,-0.1472,-0.1567,-0.1503,-0.1613,-0.1448,-0.1451,-0.1481,-0.152,-0.1515,-0.1644,-0.1662,-0.1678,-0.1675,0,0,0,0,0]},{"header":{"parameterUnit":"m.s-1","parameterCategory":2,"la1":30.2991,"la2":30.254,"lo1":-89.0895,"lo2":-89.0444,"dy":0.0017,"dx":0.0017,"nx":28,"ny":28,"refTime":"2024-04-02T03:00:00:Z","depth":"4","parameterNumber":3,"parameterNumberName":"V-component_of_CURRENTS"},"data":[0,0,0,0,0,0,0,0,0,0,0,0,0,0,0,0,0,0,0,0,0,0,0,0,0,0,0,0,0,0,0,0,0,0,0,0,0,0,0,0,0,0,0,0,0,0,0,0,0,0,0,0,0,0,0,0,0,0,-0.0272,-0.0271,0,-0.0217,-0.0217,-0.0216,-0.018,-0.018,-0.018,-0.018,-0.0087,-0.0084,-0.0082,0,0,0,0,0,0,0,0,0,0,0,0,0,-0.0301,-0.0301,-0.0272,-0.0271,-0.0271,-0.0218,-0.0217,-0.0216,-0.018,-0.018,-0.018,-0.018,-0.0087,-0.0085,-0.0082,0,0,0,0,0,0,0,0,0,0,0,0,0,-0.027,-0.0301,-0.0272,-0.0248,-0.0245,-0.0218,-0.0217,-0.0216,-0.018,-0.018,-0.018,-0.018,-0.0088,-0.0085,-0.0081,-0.0062,0,0,-0.007,-0.0069,0,0,0,0,0,0,0,0,-0.0272,-0.0269,-0.0252,-0.0249,-0.0246,-0.0207,-0.0193,-0.0163,-0.018,-0.0203,-0.018,-0.018,-0.0124,-0.0118,-0.0106,-0.0057,-0.0053,-0.007,-0.0068,-0.0066,-0.0065,0,0,0,0,0,0,0,-0.0275,-0.0271,-0.0249,-0.0251,-0.0248,-0.0225,-0.0221,-0.0187,-0.0163,-0.0201,-0.0199,-0.0195,-0.0122,-0.011,-0.0104,-0.0052,-0.007,-0.0067,-0.0065,-0.0063,0.0035,0.0036,0,0,0,0,0,0,-0.0287,-0.0273,-0.025,-0.0247,-0.0261,-0.0225,-0.022,-0.0218,-0.0164,-0.0157,-0.0196,-0.0194,-0.0116,-0.0108,-0.01,-0.0072,-0.0066,-0.0063,-0.0061,0.0035,0.0035,0.0036,0,0,0,0,0,0,-0.0288,-0.0285,-0.0253,-0.026,-0.0255,-0.0225,-0.0223,-0.0217,-0.0208,-0.0161,-0.0152,-0.0193,-0.0116,-0.0105,-0.0071,-0.0068,-0.0061,-0.0058,0.0034,0.0035,0.0035,-0.0016,0,0,0,0,0,0,-0.0289,-0.0286,-0.0293,-0.0261,-0.0255,-0.0243,-0.0223,-0.0217,-0.0207,-0.0204,-0.0156,-0.0147,-0.0115,-0.0077,-0.0068,-0.0063,-0.0055,0.0034,0.0034,0.0035,-0.0015,-0.0017,-0.0019,0,0,0,0,0,-0.029,-0.03,-0.0293,-0.0291,-0.0264,-0.0243,-0.0238,-0.0215,-0.0207,-0.0205,-0.017,-0.0148,-0.0065,-0.0074,-0.0063,-0.0057,0.0033,0.0034,0.0035,-0.0014,-0.0016,-0.0019,0,0,0,0,0,0,-0.0315,-0.0296,-0.0289,-0.0292,-0.0273,-0.0238,-0.0237,-0.0221,-0.0192,-0.019,-0.0145,-0.0133,-0.0102,-0.0071,-0.0082,-0.0024,-0.0011,-0.0008,-0.0052,-0.0054,-0.0056,-0.0069,-0.0052,0,0,0,0,0,-0.0325,-0.0329,-0.0303,-0.0307,-0.03,-0.027,-0.0261,-0.0245,-0.0215,-0.0203,-0.0167,-0.0126,-0.0088,-0.0066,-0.0031,-0.0,0.0032,0.0013,0.0011,0.0008,0.0006,0.0062,0.0064,0.0039,0.0039,0.0039,0,0,-0.0338,-0.0327,-0.0331,-0.0313,-0.0297,-0.0291,-0.0264,-0.0254,-0.0245,-0.0196,-0.0174,-0.0136,-0.0083,-0.0049,-0.0032,-0.0023,0.0032,0.001,0.0007,0.0006,0.0063,0.0066,0.0068,0.004,0.004,0.0039,0,0,-0.0362,-0.0354,-0.0365,-0.0352,-0.0333,-0.0312,-0.0313,-0.028,-0.0263,-0.0237,-0.0197,-0.0157,-0.0104,-0.0061,-0.0033,-0.0023,0.0016,-0.0012,-0.0029,0.0025,0.0027,0.0029,0.0065,0.0071,-0.0009,-0.0009,-0.0009,0,-0.0379,-0.0388,-0.0364,-0.0366,-0.0362,-0.0326,-0.0332,-0.0306,-0.0266,-0.0249,-0.0238,-0.015,-0.0108,-0.0056,-0.0051,-0.0029,0.0001,-0.0028,0.002,0.0024,0.0027,0.0063,0.007,-0.0012,-0.0011,-0.0011,-0.0011,0,-0.0406,-0.0414,-0.0418,-0.0411,-0.04,-0.0401,-0.0365,-0.0348,-0.0324,-0.0293,-0.0244,-0.0182,-0.0129,-0.0106,-0.0076,-0.0027,-0.0015,0.0006,0.0022,0.0026,0.0064,0.0073,-0.0015,-0.0014,-0.0013,-0.0013,0,0,-0.0441,-0.044,-0.0444,-0.0454,-0.0427,-0.0424,-0.0404,-0.0376,-0.0365,-0.0313,-0.0288,-0.0213,-0.0178,-0.0143,-0.0093,-0.0042,0.0006,-0.0013,-0.0009,0.0012,0.0113,0.0097,0.0105,0.0035,0.0036,0.0038,0.0126,0,-0.0472,-0.05,-0.0483,-0.0506,-0.0516,-0.0478,-0.0463,-0.0428,-0.0391,-0.0354,-0.0277,-0.0235,-0.0192,-0.0167,-0.0108,-0.0021,0.0028,-0.0021,0.0114,0.0118,0.0096,0.0115,0.0042,0.0132,0.0134,0.0136,0.0137,0,-0.0502,-0.052,-0.0554,-0.056,-0.056,-0.0563,-0.054,-0.052,-0.045,-0.0418,-0.0355,-0.0293,-0.0208,-0.0176,-0.0028,-0.0062,0.0017,0.0085,0.009,0.01,0.0119,0.0132,0.0153,0.0152,0.015,0.0149,0.0148,0,-0.0545,-0.0568,-0.0604,-0.0607,-0.0601,-0.0607,-0.0598,-0.0544,-0.0528,-0.0458,-0.0434,-0.0326,-0.027,-0.0154,-0.0014,-0.0019,0.0147,0.016,0.022,0.0219,0.0228,0.0225,0.0261,0.0261,0.0261,0.026,0.026,0,-0.0581,-0.061,-0.0635,-0.0653,-0.0693,-0.0662,-0.0678,-0.0648,-0.0596,-0.0571,-0.0476,-0.0422,-0.026,-0.0143,-0.0023,0.0123,0.0143,0.0219,0.0245,0.0203,0.0196,0.0233,0.0229,0.0264,0.0263,0.0262,0.0262,0,-0.0615,-0.0631,-0.0679,-0.0702,-0.0716,-0.0743,-0.0745,-0.0744,-0.0689,-0.0651,-0.0629,-0.0487,-0.0332,-0.0172,0.0027,0.0106,0.025,0.0297,0.023,0.0251,0.0285,0.0277,0.0365,0.0365,0.0365,0.0365,0.0366,0,-0.0633,-0.0661,-0.0727,-0.0767,-0.0786,-0.082,-0.0837,-0.0799,-0.0785,-0.0681,-0.0657,-0.0506,-0.0397,-0.0124,0.0033,0.0249,0.0279,0.0335,0.0318,0.0281,0.0298,0.029,0.0282,0.0366,0.0366,0.0366,0.0366,0,-0.0665,-0.0694,-0.0736,-0.0823,-0.087,-0.0909,-0.0923,-0.0915,-0.0848,-0.0807,-0.0653,-0.0498,-0.0323,-0.0115,0.0049,0.0205,0.0287,0.0338,0.0338,0.0323,0.0283,0.0299,0.0291,0.0367,0.0367,0.0367,0.0367,0,-0.0687,-0.0732,-0.0796,-0.0864,-0.0934,-0.0967,-0.0971,-0.0922,-0.0889,-0.0755,-0.0703,-0.0494,-0.0366,-0.0137,0.002,0.0164,0.0195,0.0226,0.0233,0.0233,0.0165,0.0094,0.0146,0,0,0,0,0,-0.0702,-0.0754,-0.0829,-0.0903,-0.0971,-0.1001,-0.1011,-0.0992,-0.0927,-0.0821,-0.0751,-0.0574,-0.0309,-0.0186,-0.0043,-0.0008,0.0188,0.0159,0.0219,0.0372,0.0371,0.0311,0,0,0,0,0,0,-0.0714,-0.079,-0.083,-0.0916,-0.0966,-0.1026,-0.103,-0.0988,-0.0907,-0.0817,-0.0666,-0.0563,-0.0304,-0.0388,-0.0045,-0.0001,0.0049,0.0292,0.0294,0.0372,0.0371,0.0371,0.0309,0,0,0,0,0]}]]